Погода в Артях

Россия / Свердловская область     56°25′00″N   58°31′57″E
темп.,
°C
ветер,
м/с
пор.,
м/с
влажн.,
%
обл.,
%
осадки,
мм/ч
давл.,
гПа
погр.,
м
16 мая, вс
вс1623:00+18в2166100 0.1 102016
02:00+18ююз2265100 0.0 102013
05:00+16юз2268100 0.0 102017
08:00+20юз385624 0.0 1020292
11:00+27зюз473711 0.0 1020870
14:00+29зюз682646 0.0 10202914
17:00+29зюз68274 0.0 10193113
20:00+24зюз38440 0.0 1018162
17 мая, пн
пн1723:00+19юз335548 0.0 101948
02:00+17ююз34603 0.0 101971
05:00+16ю34625 0.0 101974
08:00+20юз5115450 0.0 1019355
11:00+26зюз69349 0.0 10181312
14:00+28зюз8122910 0.0 10183282
17:00+28зюз611315 0.0 10163564
20:00+24з4105013 0.0 1016337
18 мая, вт
вт1823:00+19зюз38625 0.0 1016150
02:00+16сз2278100 0.2 101723
05:00+15з228058 0.3 101715
08:00+18зсз36653 0.0 1017351
11:00+22сз584856 0.0 10171631
14:00+23сз7842100 0.0 10172097
17:00+23ссз57370 0.0 10182117
20:00+17св58580 0.0 1020742
19 мая, ср
ср1923:00+12всв410640 0.0 1023458
02:00+9в38800 0.0 1025371
05:00+7всв2890100 0.0 1026259
08:00+12вюв4665100 0.0 1026699
11:00+17вюв344561 0.0 1025976
14:00+21вюв343069 0.0 10241394
17:00+22юв33275 0.0 10231646
20:00+18ююв22455 0.0 102341
20 мая, чт
чт2023:00+13юв2252100 0.0 102414
02:00+11вюв2159100 0.0 102410
05:00+10юв22637 0.0 102510
08:00+15ююз24505 0.0 1025223
11:00+20зюз45395 0.0 1024996
14:00+23зюз34345 0.0 10221658
17:00+24юз33315 0.0 10211847
20:00+21юз22475 0.0 102129